Date/Time (UTC),ProbHail,ProbWind,ProbTor,MESH,VIL Density,Flash Rate,Max Flash Density,LJA sigma-level,Max 0-2km AzShear,LLAZ 98th%,MLAZ 98th%,MUCAPE,MLCAPE,CAPE -10C to -30C,MLCIN,SRH 0-1km AGL,EBShear,MeanWind 0-1km AGL,Norm. Sat. Growth Rate,PWAT,WBZ,AvgBeamHgt,size
2019/05/20 22:28,4,3,2,0.12,0.40,2,0.13,0.0,4,4,3,3744,3461,1009,17,86,72.2,30.5,0,1.2,3200.4,990.0,45
2019/05/20 22:30,4,3,2,0.12,0.50,3,0.13,0.0,4,4,4,3886,3597,1024,13,87,73.0,30.5,0,1.2,3200.4,940.0,105
2019/05/20 22:32,9,6,2,0.12,0.70,3,0.13,0.0,4,4,4,4017,3722,1049,12,89,73.6,30.6,0,1.2,3230.88,920.0,154
2019/05/20 22:34,9,6,2,0.11,0.70,3,0.13,0.0,4,4,4,3950,3665,1034,12,88,73.5,30.6,0,1.2,3230.88,910.0,153
2019/05/20 22:36,9,6,2,0.10,0.80,3,0.13,0.0,4,4,5,3997,3701,1035,9,89,73.8,30.7,0,1.2,3230.88,860.0,76
2019/05/20 22:38,10,21,3,0.15,0.80,3,0.13,0.0,6,5,5,4203,3906,1076,11,93,74.6,30.7,0,1.2,3230.88,840.0,200
2019/05/20 22:40,4,16,3,0.15,0.80,3,0.13,0.0,5,5,6,4123,3815,1061,10,91,74.3,30.7,0,1.2,3230.88,840.0,207
2019/05/20 22:42,4,16,3,0.15,0.80,3,0.13,0.0,5,5,4,4191,3863,1061,9,93,74.7,30.8,0,1.2,3230.88,800.0,89
2019/05/20 22:44,4,16,3,0.13,0.80,3,0.13,0.0,5,5,4,4427,4104,1107,10,98,75.4,30.9,0,1.3,3230.88,770.0,75
2019/05/20 22:46,4,1,2,0.07,0.80,3,0.13,0.0,4,3,4,4606,4252,1133,11,103,76.1,31.0,0,1.3,3200.4,730.0,167
2019/05/20 22:48,4,16,2,0.10,0.70,2,0.13,0.0,4,4,7,4559,4208,1125,11,103,76.1,31.1,0,1.3,3200.4,720.0,178
2019/05/20 22:50,7,6,2,0.32,0.60,2,0.13,0.0,4,4,7,4024,3706,1028,9,92,74.3,30.9,0,1.2,3200.4,770.0,46
2019/05/20 22:52,7,33,8,0.32,0.80,2,0.13,0.0,9,6,7,4412,4057,1095,11,100,75.7,31.0,0,1.3,3200.4,730.0,203
2019/05/20 22:54,52,54,9,0.71,1.30,3,0.13,0.0,9,6,8,4445,4086,1099,11,100,75.8,31.1,0,1.3,3200.4,700.0,263
2019/05/20 22:56,54,54,15,0.71,1.30,3,0.13,0.0,9,6,8,5131,4853,1353,20,189,81.6,37.9,0,1.3,3200.4,670.0,247
2019/05/20 22:58,54,50,13,0.71,1.30,3,0.13,0.0,9,5,8,5115,4848,1352,20,191,81.6,38.1,0,1.3,3200.4,650.0,259
2019/05/20 23:00,40,44,13,0.59,1.40,4,0.10,0.0,9,5,8,5111,4844,1353,20,192,81.6,38.2,0,1.3,3200.4,640.0,231
2019/05/20 23:03,40,55,12,0.59,1.90,9,0.18,0.0,6,5,9,5095,4833,1353,20,194,81.6,38.4,0,1.3,3200.4,620.0,230
2019/05/20 23:05,48,73,14,0.60,2.00,20,0.41,8.2,6,5,9,5082,4796,1351,20,198,81.6,38.9,0,1.3,3169.92,570.0,309
2019/05/20 23:08,48,73,14,0.60,2.00,20,0.41,0.0,6,5,9,5073,4771,1351,20,201,81.5,39.2,0,1.3,3169.92,550.0,270
2019/05/20 23:10,61,69,13,0.60,2.00,31,0.46,2.6,6,4,9,5070,4745,1350,20,203,81.5,39.4,0,1.3,3169.92,530.0,247
2019/05/20 23:12,70,75,17,0.67,2.00,31,0.46,0.0,7,5,9,5069,4734,1350,20,205,81.4,39.6,0,1.3,3169.92,520.0,245
2019/05/20 23:14,73,84,21,0.72,2.30,31,0.46,0.1,6,5,10,5067,4717,1349,20,206,81.4,39.7,0,1.3,3169.92,500.0,251
2019/05/20 23:16,77,88,28,0.76,2.40,31,0.46,0.2,8,5,11,5055,4681,1342,19,210,81.3,40.0,0,1.4,3139.4400000000005,470.0,203
2019/05/20 23:18,72,85,32,0.76,2.40,26,0.46,0.1,7,6,11,5048,4643,1336,19,213,81.1,40.3,0,1.4,3139.4400000000005,440.0,217
2019/05/20 23:20,85,94,34,0.85,2.40,39,0.56,2.1,7,6,11,5043,4611,1329,19,216,80.9,40.4,0,1.4,3139.4400000000005,420.0,216
2019/05/20 23:22,85,91,43,0.85,2.10,39,0.56,0.0,9,7,11,5056,4604,1318,18,220,80.7,40.7,0,1.4,3139.4400000000005,400.0,353
2019/05/20 23:24,85,91,46,0.85,2.10,39,0.56,0.1,9,7,11,5053,4596,1309,18,223,80.3,40.8,0,1.4,3108.96,360.0,387
2019/05/20 23:26,91,95,46,1.08,2.50,39,0.56,1.3,9,7,8,5090,4592,1302,17,223,80.0,41.1,0,1.4,3108.96,350.0,393
2019/05/20 23:28,91,92,46,1.08,2.50,39,0.56,0.0,9,7,8,5097,4590,1300,17,223,79.9,41.1,0,1.4,3108.96,350.0,398
2019/05/20 23:30,91,95,40,1.08,3.20,39,0.56,0.6,10,7,10,5070,4563,1301,16,226,79.9,41.0,0,1.4,3108.96,320.0,233
2019/05/20 23:32,93,95,51,1.17,3.20,39,0.56,0.0,10,7,11,5164,4560,1294,16,227,79.6,41.2,0,1.4,3108.96,310.0,236
2019/05/20 23:34,93,95,51,1.18,3.20,36,0.56,0.3,10,7,11,5227,4556,1289,15,228,79.5,41.3,0,1.4,3108.96,290.0,246
2019/05/20 23:36,93,95,57,1.20,3.00,36,0.56,0.0,11,7,9,5354,4588,1276,15,228,79.2,41.4,0,1.5,3108.96,280.0,298
2019/05/20 23:38,91,95,53,1.20,3.00,29,0.56,0.0,11,7,9,5455,4620,1261,15,228,79.1,41.6,0,1.5,3108.96,270.0,303
2019/05/20 23:40,97,95,42,1.96,3.70,29,0.56,0.0,11,7,9,5536,4642,1250,15,228,79.1,41.6,0,1.5,3108.96,260.0,310
2019/05/20 23:42,97,95,42,2.05,3.80,23,0.56,1.4,9,7,8,5622,4671,1229,15,228,79.0,41.7,0,1.5,3139.4400000000005,250.0,362
2019/05/20 23:44,97,95,42,2.05,3.80,23,0.56,0.0,9,7,8,5674,4696,1211,15,229,78.9,41.8,0,1.5,3139.4400000000005,240.0,397
2019/05/20 23:46,97,95,43,2.05,3.80,23,0.56,0.8,11,8,8,5759,4728,1184,15,229,78.7,41.9,0,1.5,3139.4400000000005,230.0,386
2019/05/20 23:48,95,95,54,1.61,3.20,23,0.56,0.2,13,9,8,5844,4746,1158,15,229,78.5,41.9,0,1.6,3139.4400000000005,230.0,422
2019/05/20 23:50,92,95,60,1.20,3.20,27,0.56,1.4,15,9,8,5910,4752,1141,15,229,78.2,41.9,0,1.6,3139.4400000000005,230.0,491
2019/05/20 23:52,98,95,73,2.41,3.90,27,0.56,0.0,17,10,8,5979,4767,1121,16,229,77.9,42.0,0,1.6,3139.4400000000005,230.0,422
2019/05/20 23:54,98,95,72,2.41,3.90,27,0.56,0.0,17,11,8,6003,4771,1210,44,298,80.3,39.2,0,1.3,3139.4400000000005,230.0,467
2019/05/20 23:56,99,95,80,2.41,3.90,51,0.56,6.7,17,11,10,6039,4783,1198,45,298,80.0,39.2,0,1.4,3139.4400000000005,250.0,482
2019/05/20 23:58,99,95,77,2.15,3.70,52,0.51,0.1,17,11,10,6075,4795,1192,47,298,79.6,39.2,0,1.4,3139.4400000000005,260.0,455
2019/05/21 00:00,99,95,76,2.05,3.70,52,0.51,0.0,17,10,10,6091,4783,1185,48,298,79.5,39.3,0,1.4,3169.92,270.0,494
